Time,TemperatureF,DewpointF,PressureIn,WindDirection,WindDirectionDegrees,WindSpeedMPH,WindSpeedGustMPH,Humidity,HourlyPrecipIn,Conditions,Clouds,dailyrainin,SolarRadiationWatts/m^2,SoftwareType,DateUTC
2013-09-29 00:01:00,42.9,41.0,30.30,East,84,0.0,-999.0,91,-99.99,,,0.00,0,weatherlink.com 1.10,2013-09-29 04:01:00,
2013-09-29 00:16:00,42.7,40.0,30.29,East,84,0.0,-999.0,91,-99.99,,,0.00,0,weatherlink.com 1.10,2013-09-29 04:16:00,
2013-09-29 00:31:00,42.4,40.0,30.30,East,84,0.0,-999.0,90,-99.99,,,0.00,0,weatherlink.com 1.10,2013-09-29 04:31:00,
2013-09-29 00:46:00,42.1,40.0,30.29,East,84,0.0,-999.0,91,-99.99,,,0.00,0,weatherlink.com 1.10,2013-09-29 04:46:00,
2013-09-29 01:01:00,41.9,40.0,30.29,East,84,0.0,-999.0,91,-99.99,,,0.00,0,weatherlink.com 1.10,2013-09-29 05:01:00,
2013-09-29 01:16:00,41.6,39.0,30.29,East,84,0.0,-999.0,91,-99.99,,,0.00,0,weatherlink.com 1.10,2013-09-29 05:16:00,
2013-09-29 01:31:00,41.3,39.0,30.29,East,84,0.0,-999.0,91,-99.99,,,0.00,0,weatherlink.com 1.10,2013-09-29 05:31:00,
2013-09-29 01:46:00,40.9,39.0,30.28,East,84,0.0,-999.0,91,-99.99,,,0.00,0,weatherlink.com 1.10,2013-09-29 05:46:00,
2013-09-29 02:01:00,40.7,38.0,30.28,East,84,0.0,-999.0,91,-99.99,,,0.00,0,weatherlink.com 1.10,2013-09-29 06:01:00,
2013-09-29 02:16:00,40.6,39.0,30.28,East,84,0.0,-999.0,92,-99.99,,,0.00,0,weatherlink.com 1.10,2013-09-29 06:16:00,
2013-09-29 02:31:00,40.4,38.0,30.27,East,84,0.0,-999.0,91,-99.99,,,0.00,0,weatherlink.com 1.10,2013-09-29 06:31:00,
2013-09-29 02:46:00,40.2,38.0,30.27,East,84,0.0,-999.0,92,-99.99,,,0.01,0,weatherlink.com 1.10,2013-09-29 06:46:00,
2013-09-29 03:01:00,40.0,38.0,30.27,East,84,0.0,-999.0,92,-99.99,,,0.01,0,weatherlink.com 1.10,2013-09-29 07:01:00,
2013-09-29 03:16:00,39.6,38.0,30.26,East,84,0.0,-999.0,92,-99.99,,,0.01,0,weatherlink.com 1.10,2013-09-29 07:16:00,
2013-09-29 03:31:00,39.3,37.0,30.26,East,84,0.0,-999.0,92,-99.99,,,0.01,0,weatherlink.com 1.10,2013-09-29 07:31:00,
2013-09-29 03:46:00,39.1,37.0,30.26,East,84,0.0,-999.0,92,-99.99,,,0.01,0,weatherlink.com 1.10,2013-09-29 07:46:00,
2013-09-29 04:01:00,39.0,37.0,30.26,East,84,0.0,-999.0,92,-99.99,,,0.01,0,weatherlink.com 1.10,2013-09-29 08:01:00,
2013-09-29 04:16:00,38.7,37.0,30.26,East,84,0.0,-999.0,92,-99.99,,,0.01,0,weatherlink.com 1.10,2013-09-29 08:16:00,
2013-09-29 04:31:00,38.2,36.0,30.26,East,84,0.0,-999.0,92,-99.99,,,0.01,0,weatherlink.com 1.10,2013-09-29 08:31:00,
2013-09-29 04:46:00,38.0,36.0,30.25,East,84,0.0,-999.0,92,-99.99,,,0.01,0,weatherlink.com 1.10,2013-09-29 08:46:00,
2013-09-29 05:01:00,37.8,36.0,30.25,East,84,0.0,-999.0,92,-99.99,,,0.01,0,weatherlink.com 1.10,2013-09-29 09:01:00,
2013-09-29 05:16:00,37.5,35.0,30.25,East,84,0.0,-999.0,92,-99.99,,,0.01,0,weatherlink.com 1.10,2013-09-29 09:16:00,
2013-09-29 05:31:00,37.3,35.0,30.25,East,84,0.0,-999.0,92,-99.99,,,0.01,0,weatherlink.com 1.10,2013-09-29 09:31:00,
2013-09-29 05:46:00,37.1,35.0,30.25,East,84,0.0,-999.0,92,-99.99,,,0.01,0,weatherlink.com 1.10,2013-09-29 09:46:00,
2013-09-29 06:01:00,37.0,35.0,30.25,East,84,0.0,-999.0,92,-99.99,,,0.01,0,weatherlink.com 1.10,2013-09-29 10:01:00,
2013-09-29 06:16:00,37.0,35.0,30.25,East,84,0.0,-999.0,92,-99.99,,,0.01,0,weatherlink.com 1.10,2013-09-29 10:16:00,
2013-09-29 06:31:00,37.1,35.0,30.25,East,84,0.0,-999.0,92,-99.99,,,0.01,0,weatherlink.com 1.10,2013-09-29 10:31:00,
2013-09-29 06:46:00,36.9,35.0,30.26,East,84,0.0,-999.0,92,-99.99,,,0.01,0,weatherlink.com 1.10,2013-09-29 10:46:00,
2013-09-29 07:01:00,36.7,35.0,30.26,East,84,0.0,-999.0,93,-99.99,,,0.01,7,weatherlink.com 1.10,2013-09-29 11:01:00,
2013-09-29 07:16:00,36.6,35.0,30.26,East,84,0.0,-999.0,93,-99.99,,,0.01,14,weatherlink.com 1.10,2013-09-29 11:16:00,
2013-09-29 07:31:00,36.4,34.0,30.26,East,84,0.0,-999.0,92,-99.99,,,0.01,18,weatherlink.com 1.10,2013-09-29 11:31:00,
2013-09-29 07:46:00,37.9,36.0,30.26,East,84,0.0,-999.0,94,-99.99,,,0.01,97,weatherlink.com 1.10,2013-09-29 11:46:00,
2013-09-29 08:01:00,39.4,38.0,30.27,East,84,0.0,-999.0,93,-99.99,,,0.01,142,weatherlink.com 1.10,2013-09-29 12:01:00,
2013-09-29 08:16:00,40.8,39.0,30.26,East,85,0.0,-999.0,94,-99.99,,,0.01,185,weatherlink.com 1.10,2013-09-29 12:16:00,
2013-09-29 08:31:00,42.8,41.0,30.27,East,85,0.0,-999.0,93,-99.99,,,0.01,221,weatherlink.com 1.10,2013-09-29 12:31:00,
2013-09-29 08:46:00,45.1,43.0,30.26,East,85,0.0,-999.0,91,-99.99,,,0.01,264,weatherlink.com 1.10,2013-09-29 12:46:00,
2013-09-29 09:01:00,47.4,44.0,30.26,East,85,0.0,-999.0,88,-99.99,,,0.01,301,weatherlink.com 1.10,2013-09-29 13:01:00,
2013-09-29 09:16:00,50.2,46.0,30.26,East,86,0.0,-999.0,86,-99.99,,,0.01,350,weatherlink.com 1.10,2013-09-29 13:16:00,
2013-09-29 09:31:00,52.6,48.0,30.25,East,86,0.0,-999.0,83,-99.99,,,0.01,411,weatherlink.com 1.10,2013-09-29 13:31:00,
2013-09-29 09:46:00,55.5,49.0,30.25,East,86,0.0,-999.0,80,-99.99,,,0.01,454,weatherlink.com 1.10,2013-09-29 13:46:00,
2013-09-29 10:01:00,58.0,50.0,30.25,East,86,1.0,-999.0,76,-99.99,,,0.01,501,weatherlink.com 1.10,2013-09-29 14:01:00,
2013-09-29 10:16:00,60.3,52.0,30.24,SE,134,1.0,-999.0,73,-99.99,,,0.01,529,weatherlink.com 1.10,2013-09-29 14:16:00,
2013-09-29 10:31:00,61.8,51.0,30.24,SE,139,0.0,-999.0,68,-99.99,,,0.01,564,weatherlink.com 1.10,2013-09-29 14:31:00,
2013-09-29 10:46:00,63.0,51.0,30.24,WNW,302,1.0,-999.0,66,-99.99,,,0.01,592,weatherlink.com 1.10,2013-09-29 14:46:00,
2013-09-29 11:01:00,64.0,51.0,30.23,ENE,61,4.0,-999.0,64,-99.99,,,0.01,610,weatherlink.com 1.10,2013-09-29 15:01:00,
2013-09-29 11:16:00,63.8,51.0,30.23,NE,53,3.0,-999.0,63,-99.99,,,0.01,624,weatherlink.com 1.10,2013-09-29 15:16:00,
2013-09-29 11:31:00,63.9,51.0,30.23,ENE,63,0.0,-999.0,63,-99.99,,,0.01,650,weatherlink.com 1.10,2013-09-29 15:31:00,
2013-09-29 11:46:00,64.5,51.0,30.22,NE,51,3.0,-999.0,62,-99.99,,,0.01,679,weatherlink.com 1.10,2013-09-29 15:46:00,
2013-09-29 12:01:00,64.4,50.0,30.21,ESE,107,2.0,-999.0,60,-99.99,,,0.01,130,weatherlink.com 1.10,2013-09-29 16:01:00,
2013-09-29 12:16:00,64.9,51.0,30.21,East,99,0.0,-999.0,60,-99.99,,,0.01,780,weatherlink.com 1.10,2013-09-29 16:16:00,
2013-09-29 12:31:00,66.0,49.0,30.20,WSW,246,0.0,-999.0,55,-99.99,,,0.01,788,weatherlink.com 1.10,2013-09-29 16:31:00,
2013-09-29 12:46:00,66.7,50.0,30.20,WSW,253,2.0,-999.0,55,-99.99,,,0.01,782,weatherlink.com 1.10,2013-09-29 16:46:00,
2013-09-29 13:01:00,67.0,48.0,30.18,ESE,120,4.0,-999.0,51,-99.99,,,0.01,803,weatherlink.com 1.10,2013-09-29 17:01:00,
2013-09-29 13:16:00,67.4,48.0,30.18,WNW,288,1.0,-999.0,51,-99.99,,,0.01,775,weatherlink.com 1.10,2013-09-29 17:16:00,
2013-09-29 13:31:00,66.6,48.0,30.17,SSW,197,0.0,-999.0,52,-99.99,,,0.01,768,weatherlink.com 1.10,2013-09-29 17:31:00,
2013-09-29 13:46:00,67.5,49.0,30.16,North,5,1.0,-999.0,52,-99.99,,,0.01,772,weatherlink.com 1.10,2013-09-29 17:46:00,
2013-09-29 14:01:00,68.1,48.0,30.16,SSW,193,0.0,-999.0,49,-99.99,,,0.01,686,weatherlink.com 1.10,2013-09-29 18:01:00,
2013-09-29 14:16:00,69.2,50.0,30.16,SSW,193,3.0,-999.0,50,-99.99,,,0.01,626,weatherlink.com 1.10,2013-09-29 18:16:00,
2013-09-29 14:31:00,69.5,50.0,30.15,SSW,205,3.0,-999.0,50,-99.99,,,0.01,629,weatherlink.com 1.10,2013-09-29 18:31:00,
2013-09-29 14:46:00,68.8,49.0,30.14,West,263,1.0,-999.0,49,-99.99,,,0.01,612,weatherlink.com 1.10,2013-09-29 18:46:00,
2013-09-29 15:02:00,70.0,49.0,30.13,West,259,2.0,-999.0,47,-99.99,,,0.01,561,weatherlink.com 1.10,2013-09-29 19:02:00,
2013-09-29 15:16:00,68.6,49.0,30.13,West,275,1.0,-999.0,49,-99.99,,,0.01,524,weatherlink.com 1.10,2013-09-29 19:16:00,
2013-09-29 15:32:00,69.5,49.0,30.12,SSW,198,2.0,-999.0,48,-99.99,,,0.01,489,weatherlink.com 1.10,2013-09-29 19:32:00,
2013-09-29 15:47:00,69.5,48.0,30.12,SSW,205,3.0,-999.0,47,-99.99,,,0.01,459,weatherlink.com 1.10,2013-09-29 19:47:00,
2013-09-29 16:02:00,69.5,49.0,30.12,SW,223,2.0,-999.0,48,-99.99,,,0.01,448,weatherlink.com 1.10,2013-09-29 20:02:00,
2013-09-29 16:17:00,70.2,49.0,30.11,WSW,238,2.0,-999.0,47,-99.99,,,0.01,394,weatherlink.com 1.10,2013-09-29 20:17:00,
2013-09-29 16:32:00,70.7,49.0,30.11,SSW,200,1.0,-999.0,47,-99.99,,,0.01,366,weatherlink.com 1.10,2013-09-29 20:32:00,
2013-09-29 16:47:00,70.2,49.0,30.10,SSW,205,1.0,-999.0,47,-99.99,,,0.01,306,weatherlink.com 1.10,2013-09-29 20:47:00,
2013-09-29 17:02:00,69.8,49.0,30.10,South,190,4.0,-999.0,47,-99.99,,,0.01,258,weatherlink.com 1.10,2013-09-29 21:02:00,
2013-09-29 17:17:00,68.6,49.0,30.10,SW,223,0.0,-999.0,50,-99.99,,,0.01,200,weatherlink.com 1.10,2013-09-29 21:17:00,
2013-09-29 17:32:00,69.2,50.0,30.10,SW,223,1.0,-999.0,51,-99.99,,,0.01,139,weatherlink.com 1.10,2013-09-29 21:32:00,
2013-09-29 17:47:00,67.6,50.0,30.10,WSW,242,0.0,-999.0,53,-99.99,,,0.01,95,weatherlink.com 1.10,2013-09-29 21:47:00,
2013-09-29 18:02:00,66.8,50.0,30.10,ENE,57,4.0,-999.0,56,-99.99,,,0.01,26,weatherlink.com 1.10,2013-09-29 22:02:00,
2013-09-29 18:17:00,64.8,51.0,30.10,ENE,69,1.0,-999.0,62,-99.99,,,0.01,16,weatherlink.com 1.10,2013-09-29 22:17:00,
2013-09-29 18:32:00,63.0,51.0,30.10,SSW,205,0.0,-999.0,66,-99.99,,,0.01,5,weatherlink.com 1.10,2013-09-29 22:32:00,
2013-09-29 18:47:00,61.1,51.0,30.11,East,81,0.0,-999.0,70,-99.99,,,0.01,0,weatherlink.com 1.10,2013-09-29 22:47:00,
2013-09-29 19:02:00,59.4,51.0,30.11,East,81,0.0,-999.0,74,-99.99,,,0.01,0,weatherlink.com 1.10,2013-09-29 23:02:00,
2013-09-29 19:17:00,58.7,51.0,30.12,East,81,0.0,-999.0,76,-99.99,,,0.01,0,weatherlink.com 1.10,2013-09-29 23:17:00,
2013-09-29 19:32:00,58.0,52.0,30.12,East,81,0.0,-999.0,79,-99.99,,,0.01,0,weatherlink.com 1.10,2013-09-29 23:32:00,
2013-09-29 19:47:00,57.3,52.0,30.13,East,81,0.0,-999.0,81,-99.99,,,0.01,0,weatherlink.com 1.10,2013-09-29 23:47:00,
2013-09-29 20:02:00,56.3,51.0,30.13,East,81,0.0,-999.0,82,-99.99,,,0.01,0,weatherlink.com 1.10,2013-09-30 00:02:00,
2013-09-29 20:17:00,54.8,50.0,30.13,East,81,0.0,-999.0,85,-99.99,,,0.01,0,weatherlink.com 1.10,2013-09-30 00:17:00,
2013-09-29 20:32:00,53.4,50.0,30.13,East,81,0.0,-999.0,87,-99.99,,,0.01,0,weatherlink.com 1.10,2013-09-30 00:32:00,
2013-09-29 20:47:00,52.2,49.0,30.13,East,81,0.0,-999.0,89,-99.99,,,0.01,0,weatherlink.com 1.10,2013-09-30 00:47:00,
2013-09-29 21:02:00,51.4,49.0,30.13,East,81,0.0,-999.0,90,-99.99,,,0.01,0,weatherlink.com 1.10,2013-09-30 01:02:00,
2013-09-29 21:17:00,50.4,48.0,30.14,East,81,0.0,-999.0,90,-99.99,,,0.01,0,weatherlink.com 1.10,2013-09-30 01:17:00,
2013-09-29 21:32:00,49.6,47.0,30.14,East,81,1.0,-999.0,91,-99.99,,,0.01,0,weatherlink.com 1.10,2013-09-30 01:32:00,
2013-09-29 21:47:00,49.0,47.0,30.13,East,81,0.0,-999.0,91,-99.99,,,0.01,0,weatherlink.com 1.10,2013-09-30 01:47:00,
2013-09-29 22:02:00,48.3,46.0,30.13,East,81,0.0,-999.0,92,-99.99,,,0.01,0,weatherlink.com 1.10,2013-09-30 02:02:00,
2013-09-29 22:17:00,47.8,46.0,30.13,East,81,0.0,-999.0,92,-99.99,,,0.01,0,weatherlink.com 1.10,2013-09-30 02:17:00,
2013-09-29 22:32:00,47.2,45.0,30.13,East,81,0.0,-999.0,92,-99.99,,,0.01,0,weatherlink.com 1.10,2013-09-30 02:32:00,
2013-09-29 22:47:00,46.9,45.0,30.13,East,81,0.0,-999.0,92,-99.99,,,0.01,0,weatherlink.com 1.10,2013-09-30 02:47:00,
2013-09-29 23:02:00,46.3,44.0,30.14,East,81,0.0,-999.0,92,-99.99,,,0.01,0,weatherlink.com 1.10,2013-09-30 03:02:00,
2013-09-29 23:17:00,45.8,44.0,30.13,East,81,0.0,-999.0,92,-99.99,,,0.01,0,weatherlink.com 1.10,2013-09-30 03:17:00,
2013-09-29 23:32:00,45.2,43.0,30.13,East,81,0.0,-999.0,93,-99.99,,,0.01,0,weatherlink.com 1.10,2013-09-30 03:32:00,
2013-09-29 23:47:00,45.0,43.0,30.13,East,81,0.0,-999.0,93,-99.99,,,0.01,0,weatherlink.com 1.10,2013-09-30 03:47:00,